Weather History for KCEW - November, 2011

Change the Weather History Date:

Monday, November 14, 2011

  Actual Average Record
Temperature  
Mean Temperature 66 °F -  
Max Temperature 80 °F 69 °F 84 °F (2008)
Min Temperature 53 °F 41 °F 27 °F (1977)
Cooling Degree Days 2    
Growing Degree Days 16 (Base 50)    
Moisture  
Dew Point 60 °F    
Average Humidity 89    
Maximum Humidity 100    
Minimum Humidity 61    
Precipitation  
Precipitation 0.01 in - - ()
Sea Level Pressure  
Sea Level Pressure 30.09 in    
Wind  
Wind Speed 2 mph (SSE)    
Max Wind Speed 16 mph    
Max Gust Speed 22 mph    
Visibility 4 miles    
Events Fog    
Averages and records for this station are not official NWS values.
T = Trace of Precipitation, MM = Missing Value Source: NWS Daily Summary

Daily Weather History Graph

Daily Weather History Graph

Search for Another Location

Airport or City:

Trip Planner

Search our weather history database for the weather conditions in past years. The results will help you decide how hot, cold, wet, or windy it might be!

Date:

Astronomy

Nov. 14, 2011 Rise Set
Actual Time 6:11 AM CST 4:49 PM CST
Civil Twilight 5:45 AM CST 5:14 PM CST
Nautical Twilight 5:16 AM CST 5:43 PM CST
Astronomical Twilight 4:48 AM CST 6:12 PM CST
Moon 8:00 PM CST (11/14) 9:24 AM CST (11/14)
Length of Visible Light 11h 28m
Length of Day
10h 37m
Waning Gibbous, 86% of the Moon is Illuminated
Nov 14
Waning Gibbous
Nov 18
Last Quarter
Nov 25
New
Dec 2
First Quarter
Dec 10
Full

Hourly Weather History & Observations

Time (CST) Temp. Heat Index Dew Point Humidity Pressure Visibility Wind Dir Wind Speed Gust Speed Precip Events Conditions
12:53 AM 62.1 °F - 60.1 °F 93% 30.11 in 9.0 mi Variable 3.5 mph - N/A   Partly Cloudy
1:53 AM 61.0 °F - 59.0 °F 93% 30.11 in 5.0 mi Calm Calm - N/A   Clear
1:58 AM 60.8 °F - 59.0 °F 94% 30.11 in 1.0 mi Calm Calm - N/A   Mist
2:01 AM 60.8 °F - 59.0 °F 94% 30.11 in 0.5 mi Calm Calm - N/A Fog Fog
2:15 AM 59.0 °F - 57.2 °F 94% 30.11 in 1.0 mi Calm Calm - N/A   Mist
2:26 AM 57.2 °F - 57.2 °F 100% 30.11 in 0.5 mi Calm Calm - N/A Fog Fog
2:53 AM 55.9 °F - 55.0 °F 97% 30.10 in 0.5 mi Calm Calm - N/A Fog Fog
2:56 AM 55.4 °F - 55.4 °F 100% 30.10 in 1.0 mi Calm Calm - N/A   Mist
2:59 AM 55.4 °F - 55.4 °F 100% 30.10 in 2.0 mi Calm Calm - N/A   Mostly Cloudy
3:09 AM 57.2 °F - 55.4 °F 94% 30.10 in 0.8 mi Calm Calm - N/A   Mist
3:16 AM 55.4 °F - 53.6 °F 94% 30.10 in 0.2 mi Calm Calm - N/A Fog Fog
3:53 AM 55.4 °F - 53.6 °F 94% 30.10 in 0.2 mi Calm Calm - N/A Fog Fog
4:19 AM 53.6 °F - 53.6 °F 100% 30.10 in 1.0 mi Calm Calm - N/A   Mist
4:49 AM 53.6 °F - 51.8 °F 94% 30.10 in 0.8 mi Calm Calm - N/A   Mist
4:53 AM 53.1 °F - 52.0 °F 96% 30.10 in 1.0 mi Calm Calm - N/A   Mist
4:55 AM 53.6 °F - 51.8 °F 94% 30.10 in 1.2 mi Calm Calm - N/A   Overcast
5:03 AM 53.6 °F - 51.8 °F 94% 30.11 in 0.8 mi Calm Calm - N/A   Overcast
5:07 AM 53.6 °F - 53.6 °F 100% 30.11 in 0.5 mi Calm Calm - N/A Fog Fog
5:23 AM 55.4 °F - 53.6 °F 94% 30.12 in 0.2 mi Calm Calm - N/A Fog Fog
5:53 AM 57.2 °F - 57.2 °F 100% 30.13 in 0.5 mi Calm Calm - N/A Fog Fog
6:05 AM 59.0 °F - 57.2 °F 94% 30.13 in 0.8 mi Calm Calm - N/A   Overcast
6:13 AM 59.0 °F - 57.2 °F 94% 30.13 in 0.5 mi Calm Calm - N/A Fog Fog
6:20 AM 59.0 °F - 57.2 °F 94% 30.13 in 0.8 mi Calm Calm - N/A   Overcast
6:27 AM 59.0 °F - 57.2 °F 94% 30.13 in 2.0 mi Calm Calm - N/A   Overcast
6:36 AM 60.8 °F - 59.0 °F 94% 30.13 in 5.0 mi ESE 4.6 mph - N/A   Overcast
6:53 AM 61.0 °F - 60.1 °F 97% 30.12 in 4.0 mi Calm Calm - N/A   Overcast
7:27 AM 62.6 °F - 62.6 °F 100% 30.13 in 6.0 mi Calm Calm - N/A   Overcast
7:53 AM 64.0 °F - 62.1 °F 93% 30.13 in 8.0 mi ESE 3.5 mph - N/A   Overcast
8:53 AM 71.1 °F - 64.0 °F 78% 30.14 in 10.0 mi SE 9.2 mph - N/A   Overcast
9:53 AM 73.9 °F - 64.0 °F 71% 30.13 in 10.0 mi SSE 9.2 mph 18.4 mph N/A   Overcast
10:53 AM 78.1 °F - 64.9 °F 64% 30.11 in 10.0 mi South 13.8 mph 21.9 mph N/A   Overcast
11:53 AM 79.0 °F - 66.0 °F 64% 30.08 in 10.0 mi South 15.0 mph 21.9 mph N/A   Mostly Cloudy
12:53 PM 80.1 °F 82.1 °F 66.0 °F 62% 30.05 in 10.0 mi South 9.2 mph - N/A   Overcast
1:26 PM 80.6 °F 82.7 °F 66.2 °F 61% 30.05 in 10.0 mi SSW 15.0 mph 18.4 mph N/A   Overcast
1:53 PM 78.1 °F - 64.9 °F 64% 30.04 in 10.0 mi SSW 13.8 mph - N/A   Mostly Cloudy
2:20 PM 78.8 °F - 66.2 °F 65% 30.04 in 10.0 mi South 13.8 mph 20.7 mph N/A   Mostly Cloudy
2:33 PM 77.0 °F - 64.4 °F 65% 30.04 in 10.0 mi South 16.1 mph - N/A   Mostly Cloudy
2:53 PM 75.9 °F - 64.9 °F 69% 30.03 in 10.0 mi SSE 8.1 mph - N/A   Overcast
3:53 PM 75.0 °F - 64.9 °F 71% 30.03 in 10.0 mi Variable 5.8 mph - N/A   Overcast
4:53 PM 73.0 °F - 64.0 °F 73% 30.04 in 10.0 mi South 4.6 mph - N/A   Overcast
5:16 PM 71.6 °F - 64.4 °F 78% 30.04 in 10.0 mi SSE 5.8 mph - N/A   Mostly Cloudy
5:53 PM 70.0 °F - 64.0 °F 81% 30.04 in 10.0 mi SSE 3.5 mph - N/A   Clear
6:53 PM 68.0 °F - 64.4 °F 88% 30.05 in 10.0 mi SSE 3.5 mph - N/A   Clear
7:53 PM 66.9 °F - 64.9 °F 93% 30.05 in 7.0 mi Calm Calm - N/A   Clear
8:31 PM 66.2 °F - 64.4 °F 94% 30.06 in 5.0 mi SSE 3.5 mph - N/A   Mostly Cloudy
8:53 PM 66.0 °F - 64.0 °F 93% 30.05 in 5.0 mi Calm Calm - N/A   Overcast
9:26 PM 66.2 °F - 64.4 °F 94% 30.07 in 5.0 mi Calm Calm - N/A   Scattered Clouds
9:53 PM 64.9 °F - 64.0 °F 97% 30.06 in 2.0 mi Calm Calm - N/A   Partly Cloudy
10:06 PM 64.4 °F - 62.6 °F 94% 30.07 in 4.0 mi SE 3.5 mph - N/A   Partly Cloudy
10:31 PM 64.4 °F - 62.6 °F 94% 30.06 in 2.0 mi Calm Calm - N/A   Mostly Cloudy
10:37 PM 64.4 °F - 62.6 °F 94% 30.06 in 0.8 mi Calm Calm - N/A   Mostly Cloudy
10:53 PM 64.0 °F - 62.1 °F 93% 30.05 in 1.0 mi Calm Calm - N/A   Overcast
11:21 PM 62.6 °F - 62.6 °F 100% 30.05 in 0.8 mi Calm Calm - N/A   Overcast
11:34 PM 62.6 °F - 60.8 °F 94% 30.05 in 2.0 mi Calm Calm - 0.01 in   Overcast
11:47 PM 64.4 °F - 62.6 °F 94% 30.04 in 1.8 mi Calm Calm - 0.01 in   Overcast
11:53 PM 64.0 °F - 62.1 °F 93% 30.03 in 1.0 mi Calm Calm - 0.01 in   Overcast